Wetterdaten: Donnerstag, 02.06.2016
Datum Zeit Auen-Temp. Temp gefhlt Luftfeuchte Luftdruck Regen Wind Richtung Richtung Sonnenschein Taupunkt Windben
02.06.2016 00:00 11,1 C 10,8 C 82 % 1013,8 hPa 0,0 mm 0,0 km/h (0 Bft) O 90 0 min 8,1 C 0,0 km/h (0 Bft)
02.06.2016 00:05 11,1 C 10,7 C 82 % 1013,8 hPa 0,0 mm 0,0 km/h (0 Bft) O 90 0 min 8,1 C 0,0 km/h (0 Bft)
02.06.2016 00:10 10,8 C 10,5 C 82 % 1013,6 hPa 0,0 mm 0,0 km/h (0 Bft) NO 45 0 min 7,9 C 0,0 km/h (0 Bft)
02.06.2016 00:15 10,7 C 10,3 C 82 % 1013,6 hPa 0,0 mm 0,0 km/h (0 Bft) N 360 0 min 7,8 C 0,0 km/h (0 Bft)
02.06.2016 00:20 10,6 C 10,1 C 82 % 1013,6 hPa 0,0 mm 0,0 km/h (0 Bft) N-NW 337 0 min 7,7 C 0,0 km/h (0 Bft)
02.06.2016 00:25 10,5 C 10,0 C 82 % 1013,6 hPa 0,0 mm 0,0 km/h (0 Bft) O-NO 67 0 min 7,6 C 0,0 km/h (0 Bft)
02.06.2016 00:30 10,4 C 9,9 C 83 % 1013,6 hPa 0,0 mm 0,0 km/h (0 Bft) O-NO 67 0 min 7,6 C 0,0 km/h (0 Bft)
02.06.2016 00:35 10,3 C 9,9 C 83 % 1013,6 hPa 0,0 mm 0,0 km/h (0 Bft) N-NO 22 0 min 7,5 C 0,0 km/h (0 Bft)
02.06.2016 00:40 10,3 C 9,9 C 83 % 1013,6 hPa 0,0 mm 0,0 km/h (0 Bft) N-NW 337 0 min 7,5 C 0,0 km/h (0 Bft)
02.06.2016 00:45 10,3 C 9,9 C 83 % 1013,6 hPa 0,0 mm 0,0 km/h (0 Bft) N-NW 337 0 min 7,5 C 0,0 km/h (0 Bft)
02.06.2016 00:50 10,2 C 9,8 C 83 % 1013,4 hPa 0,0 mm 0,0 km/h (0 Bft) NW 315 0 min 7,4 C 0,0 km/h (0 Bft)
02.06.2016 00:55 10,1 C 9,7 C 83 % 1013,4 hPa 0,0 mm 0,0 km/h (0 Bft) NW 315 0 min 7,3 C 0,0 km/h (0 Bft)
02.06.2016 01:00 10,1 C 9,8 C 83 % 1013,4 hPa 0,0 mm 0,0 km/h (0 Bft) O-NO 67 0 min 7,3 C 0,0 km/h (0 Bft)
02.06.2016 01:05 10,0 C 9,7 C 83 % 1013,4 hPa 0,0 mm 0,0 km/h (0 Bft) O-NO 67 0 min 7,2 C 0,0 km/h (0 Bft)
02.06.2016 01:08 10,0 C 9,7 C 83 % 1013,2 hPa 0,0 mm 0,0 km/h (0 Bft) NO 45 0 min 7,2 C 0,0 km/h (0 Bft)
02.06.2016 01:10 10,0 C 9,7 C 83 % 1013,2 hPa 0,0 mm 0,0 km/h (0 Bft) NO 45 0 min 7,2 C 0,0 km/h (0 Bft)
02.06.2016 01:15 9,9 C 9,6 C 84 % 1013,2 hPa 0,0 mm 0,0 km/h (0 Bft) N-NW 337 0 min 7,3 C 0,0 km/h (0 Bft)
02.06.2016 01:20 9,9 C 9,5 C 84 % 1013,2 hPa 0,0 mm 0,0 km/h (0 Bft) W 270 0 min 7,3 C 0,0 km/h (0 Bft)
02.06.2016 01:25 9,9 C 9,5 C 84 % 1013,2 hPa 0,0 mm 0,3 km/h (0 Bft) NO 45 0 min 7,3 C 0,0 km/h (0 Bft)
02.06.2016 01:30 9,9 C 9,5 C 84 % 1012,9 hPa 0,0 mm 0,9 km/h (0 Bft) N-NW 337 0 min 7,3 C 8,9 km/h (2 Bft)
02.06.2016 01:35 9,9 C 9,6 C 84 % 1012,9 hPa 0,0 mm 0,6 km/h (0 Bft) N-NO 22 0 min 7,3 C 0,0 km/h (0 Bft)
02.06.2016 01:40 9,8 C 9,4 C 84 % 1012,9 hPa 0,0 mm 0,0 km/h (0 Bft) NW 315 0 min 7,2 C 0,0 km/h (0 Bft)
02.06.2016 01:45 9,7 C 9,3 C 84 % 1012,9 hPa 0,0 mm 0,0 km/h (0 Bft) W-NW 292 0 min 7,1 C 0,0 km/h (0 Bft)
02.06.2016 01:50 9,6 C 9,2 C 85 % 1012,7 hPa 0,0 mm 0,0 km/h (0 Bft) NW 315 0 min 7,2 C 0,0 km/h (0 Bft)
02.06.2016 01:55 9,5 C 9,1 C 85 % 1012,7 hPa 0,0 mm 0,0 km/h (0 Bft) N-NO 22 0 min 7,1 C 0,0 km/h (0 Bft)
02.06.2016 02:00 9,4 C 9,0 C 85 % 1012,7 hPa 0,0 mm 0,0 km/h (0 Bft) N-NW 337 0 min 7,0 C 0,0 km/h (0 Bft)
02.06.2016 02:05 9,3 C 8,9 C 85 % 1012,7 hPa 0,0 mm 0,0 km/h (0 Bft) SW 225 0 min 6,9 C 0,0 km/h (0 Bft)
02.06.2016 02:10 9,1 C 8,7 C 85 % 1012,5 hPa 0,0 mm 0,0 km/h (0 Bft) W 270 0 min 6,7 C 0,0 km/h (0 Bft)
02.06.2016 02:15 9,0 C 8,6 C 85 % 1012,5 hPa 0,0 mm 0,0 km/h (0 Bft) W 270 0 min 6,6 C 0,0 km/h (0 Bft)
02.06.2016 02:20 8,9 C 8,7 C 85 % 1012,5 hPa 0,0 mm 0,0 km/h (0 Bft) O-NO 67 0 min 6,5 C 0,0 km/h (0 Bft)
02.06.2016 02:25 9,0 C 8,7 C 85 % 1012,5 hPa 0,0 mm 0,0 km/h (0 Bft) O-NO 67 0 min 6,6 C 0,0 km/h (0 Bft)
02.06.2016 02:30 9,0 C 8,8 C 85 % 1012,4 hPa 0,0 mm 0,0 km/h (0 Bft) O-NO 67 0 min 6,6 C 0,0 km/h (0 Bft)
02.06.2016 02:35 9,1 C 8,8 C 85 % 1012,4 hPa 0,0 mm 0,0 km/h (0 Bft) O-NO 67 0 min 6,7 C 0,0 km/h (0 Bft)
02.06.2016 02:40 9,1 C 9,0 C 85 % 1012,4 hPa 0,0 mm 0,0 km/h (0 Bft) O-NO 67 0 min 6,7 C 0,0 km/h (0 Bft)
02.06.2016 02:45 9,2 C 9,0 C 85 % 1012,4 hPa 0,0 mm 0,0 km/h (0 Bft) NO 45 0 min 6,8 C 0,0 km/h (0 Bft)
02.06.2016 02:50 9,2 C 9,1 C 85 % 1012,4 hPa 0,0 mm 0,0 km/h (0 Bft) SO 135 0 min 6,8 C 0,0 km/h (0 Bft)
02.06.2016 02:55 9,2 C 9,1 C 85 % 1012,4 hPa 0,0 mm 0,0 km/h (0 Bft) W 270 0 min 6,8 C 0,0 km/h (0 Bft)
02.06.2016 03:00 9,3 C 9,2 C 85 % 1012,4 hPa 0,0 mm 0,0 km/h (0 Bft) W-NW 292 0 min 6,9 C 0,0 km/h (0 Bft)
02.06.2016 03:05 9,3 C 9,2 C 85 % 1012,4 hPa 0,0 mm 0,0 km/h (0 Bft) W-NW 292 0 min 6,9 C 0,0 km/h (0 Bft)
02.06.2016 03:10 9,4 C 9,3 C 85 % 1012,6 hPa 0,0 mm 0,6 km/h (0 Bft) S-SW 202 0 min 7,0 C 0,0 km/h (0 Bft)
02.06.2016 03:15 9,4 C 9,2 C 85 % 1012,6 hPa 0,0 mm 0,6 km/h (0 Bft) NO 45 0 min 7,0 C 0,0 km/h (0 Bft)
02.06.2016 03:20 9,4 C 9,3 C 85 % 1012,6 hPa 0,0 mm 0,0 km/h (0 Bft) W-SW 247 0 min 7,0 C 0,0 km/h (0 Bft)
02.06.2016 03:25 9,4 C 9,3 C 85 % 1012,6 hPa 0,0 mm 0,0 km/h (0 Bft) NW 315 0 min 7,0 C 0,0 km/h (0 Bft)
02.06.2016 03:30 9,5 C 9,4 C 86 % 1012,3 hPa 0,0 mm 0,0 km/h (0 Bft) N-NO 22 0 min 7,3 C 0,0 km/h (0 Bft)
02.06.2016 03:35 9,5 C 9,4 C 86 % 1012,3 hPa 0,0 mm 0,3 km/h (0 Bft) W-SW 247 0 min 7,3 C 7,7 km/h (2 Bft)
02.06.2016 03:40 9,6 C 9,5 C 86 % 1012,3 hPa 0,0 mm 0,6 km/h (0 Bft) NW 315 0 min 7,4 C 0,0 km/h (0 Bft)
02.06.2016 03:45 9,7 C 9,6 C 86 % 1012,3 hPa 0,0 mm 0,6 km/h (0 Bft) S 180 0 min 7,5 C 0,0 km/h (0 Bft)
02.06.2016 03:50 9,8 C 9,7 C 86 % 1012,3 hPa 0,0 mm 0,0 km/h (0 Bft) SW 225 0 min 7,6 C 0,0 km/h (0 Bft)
02.06.2016 03:55 9,8 C 9,7 C 86 % 1012,3 hPa 0,0 mm 0,0 km/h (0 Bft) S 180 0 min 7,6 C 0,0 km/h (0 Bft)
02.06.2016 04:00 9,9 C 9,8 C 86 % 1012,3 hPa 0,0 mm 1,5 km/h (1 Bft) S-SW 202 0 min 7,7 C 0,0 km/h (0 Bft)
02.06.2016 04:05 10,0 C 9,9 C 86 % 1012,3 hPa 0,0 mm 3,0 km/h (1 Bft) N 360 0 min 7,8 C 6,0 km/h (2 Bft)
02.06.2016 04:08 10,1 C 10,0 C 86 % 1012,3 hPa 0,0 mm 4,5 km/h (1 Bft) S-SO 157 0 min 7,9 C 3,9 km/h (1 Bft)
02.06.2016 04:11 10,1 C 10,0 C 86 % 1012,3 hPa 0,0 mm 4,5 km/h (1 Bft) S-SO 157 0 min 7,9 C 3,9 km/h (1 Bft)
02.06.2016 04:15 10,2 C 10,0 C 86 % 1012,3 hPa 0,0 mm 3,9 km/h (1 Bft) SO 135 0 min 8,0 C 0,0 km/h (0 Bft)
02.06.2016 04:20 10,1 C 9,9 C 86 % 1012,3 hPa 0,0 mm 1,2 km/h (1 Bft) SW 225 0 min 7,9 C 0,0 km/h (0 Bft)
02.06.2016 04:25 10,1 C 9,9 C 86 % 1012,3 hPa 0,0 mm 0,0 km/h (0 Bft) S-SW 202 0 min 7,9 C 0,0 km/h (0 Bft)
02.06.2016 04:30 10,2 C 10,0 C 86 % 1012,3 hPa 0,0 mm 0,6 km/h (0 Bft) S-SO 157 0 min 8,0 C 0,0 km/h (0 Bft)
02.06.2016 04:35 10,2 C 10,0 C 86 % 1012,3 hPa 0,0 mm 0,6 km/h (0 Bft) SO 135 0 min 8,0 C 0,0 km/h (0 Bft)
02.06.2016 04:40 10,2 C 9,9 C 86 % 1012,3 hPa 0,0 mm 0,0 km/h (0 Bft) S 180 0 min 8,0 C 0,0 km/h (0 Bft)
02.06.2016 04:45 10,1 C 9,9 C 86 % 1012,3 hPa 0,0 mm 0,0 km/h (0 Bft) S-SO 157 0 min 7,9 C 0,0 km/h (0 Bft)
02.06.2016 04:50 10,1 C 9,9 C 86 % 1012,2 hPa 0,0 mm 0,0 km/h (0 Bft) SO 135 0 min 7,9 C 0,0 km/h (0 Bft)
02.06.2016 04:55 10,1 C 9,9 C 86 % 1012,2 hPa 0,0 mm 0,0 km/h (0 Bft) S 180 0 min 7,9 C 0,0 km/h (0 Bft)
02.06.2016 05:00 10,1 C 9,9 C 86 % 1012,2 hPa 0,0 mm 0,0 km/h (0 Bft) SW 225 0 min 7,9 C 0,0 km/h (0 Bft)
02.06.2016 05:05 10,1 C 9,9 C 86 % 1012,2 hPa 0,0 mm 0,0 km/h (0 Bft) W 270 0 min 7,9 C 0,0 km/h (0 Bft)
02.06.2016 05:10 10,1 C 9,9 C 86 % 1012,2 hPa 0,0 mm 1,2 km/h (1 Bft) W-SW 247 0 min 7,9 C 11,6 km/h (2 Bft)
02.06.2016 05:15 10,1 C 9,9 C 86 % 1012,2 hPa 0,0 mm 1,5 km/h (1 Bft) SW 225 0 min 7,9 C 10,1 km/h (2 Bft)
02.06.2016 05:20 10,1 C 10,0 C 86 % 1012,2 hPa 0,0 mm 3,9 km/h (1 Bft) S 180 0 min 7,9 C 12,8 km/h (3 Bft)
02.06.2016 05:25 10,1 C 10,0 C 86 % 1012,2 hPa 0,0 mm 3,3 km/h (1 Bft) W-SW 247 0 min 7,9 C 0,0 km/h (0 Bft)
02.06.2016 05:30 10,2 C 10,0 C 86 % 1012,2 hPa 0,0 mm 0,9 km/h (0 Bft) S-SO 157 0 min 8,0 C 0,0 km/h (0 Bft)
02.06.2016 05:35 10,2 C 10,0 C 86 % 1012,2 hPa 0,0 mm 1,2 km/h (1 Bft) S 180 0 min 8,0 C 5,4 km/h (1 Bft)
02.06.2016 05:40 10,2 C 10,0 C 86 % 1012,2 hPa 0,0 mm 0,3 km/h (0 Bft) SO 135 0 min 8,0 C 0,0 km/h (0 Bft)
02.06.2016 05:45 10,2 C 10,0 C 86 % 1012,2 hPa 0,0 mm 0,3 km/h (0 Bft) W-SW 247 0 min 8,0 C 0,0 km/h (0 Bft)
02.06.2016 05:50 10,2 C 10,1 C 86 % 1012,3 hPa 0,0 mm 0,0 km/h (0 Bft) S-SO 157 0 min 8,0 C 0,0 km/h (0 Bft)
02.06.2016 05:55 10,2 C 10,1 C 86 % 1012,3 hPa 0,0 mm 0,0 km/h (0 Bft) SW 225 0 min 8,0 C 0,0 km/h (0 Bft)
02.06.2016 06:00 10,3 C 10,1 C 86 % 1012,3 hPa 0,0 mm 0,0 km/h (0 Bft) SW 225 0 min 8,1 C 0,0 km/h (0 Bft)
02.06.2016 06:05 10,3 C 10,2 C 86 % 1012,3 hPa 0,0 mm 0,0 km/h (0 Bft) S-SW 202 0 min 8,1 C 0,0 km/h (0 Bft)
02.06.2016 06:10 10,3 C 10,2 C 86 % 1012,4 hPa 0,7 mm 0,0 km/h (0 Bft) SO 135 0 min 8,1 C 0,0 km/h (0 Bft)
02.06.2016 06:15 10,3 C 10,2 C 86 % 1012,4 hPa 0,0 mm 0,0 km/h (0 Bft) SO 135 0 min 8,1 C 0,0 km/h (0 Bft)
02.06.2016 06:20 10,3 C 10,2 C 86 % 1012,4 hPa 0,0 mm 0,0 km/h (0 Bft) SO 135 0 min 8,1 C 0,0 km/h (0 Bft)
02.06.2016 06:25 10,3 C 10,3 C 86 % 1012,4 hPa 0,0 mm 0,0 km/h (0 Bft) S-SO 157 0 min 8,1 C 0,0 km/h (0 Bft)
02.06.2016 06:30 10,4 C 10,3 C 86 % 1012,2 hPa 0,0 mm 0,0 km/h (0 Bft) SW 225 0 min 8,2 C 0,0 km/h (0 Bft)
02.06.2016 06:35 10,4 C 10,4 C 86 % 1012,2 hPa 0,0 mm 0,0 km/h (0 Bft) SW 225 0 min 8,2 C 0,0 km/h (0 Bft)
02.06.2016 06:40 10,5 C 10,4 C 86 % 1012,2 hPa 0,0 mm 0,0 km/h (0 Bft) NW 315 0 min 8,3 C 0,0 km/h (0 Bft)
02.06.2016 06:45 10,5 C 10,4 C 86 % 1012,2 hPa 0,0 mm 0,0 km/h (0 Bft) S-SW 202 0 min 8,3 C 0,0 km/h (0 Bft)
02.06.2016 06:50 10,5 C 10,5 C 86 % 1012,4 hPa 0,0 mm 0,0 km/h (0 Bft) S-SO 157 0 min 8,3 C 0,0 km/h (0 Bft)
02.06.2016 06:55 10,5 C 10,5 C 86 % 1012,4 hPa 0,0 mm 0,0 km/h (0 Bft) S 180 0 min 8,3 C 0,0 km/h (0 Bft)
02.06.2016 07:00 10,5 C 10,5 C 86 % 1012,4 hPa 0,0 mm 0,0 km/h (0 Bft) SO 135 0 min 8,3 C 0,0 km/h (0 Bft)
02.06.2016 07:05 10,5 C 10,5 C 86 % 1012,4 hPa 0,7 mm 0,0 km/h (0 Bft) SW 225 0 min 8,3 C 0,0 km/h (0 Bft)
02.06.2016 07:10 10,6 C 10,6 C 86 % 1012,5 hPa 0,0 mm 0,0 km/h (0 Bft) S 180 0 min 8,4 C 0,0 km/h (0 Bft)
02.06.2016 07:12 10,6 C 10,6 C 86 % 1012,5 hPa 0,0 mm 0,0 km/h (0 Bft) S 180 0 min 8,4 C 0,0 km/h (0 Bft)
02.06.2016 07:15 10,6 C 10,7 C 86 % 1012,5 hPa 0,0 mm 0,0 km/h (0 Bft) S 180 0 min 8,4 C 0,0 km/h (0 Bft)
02.06.2016 07:20 10,6 C 10,7 C 86 % 1012,5 hPa 0,0 mm 0,0 km/h (0 Bft) S 180 0 min 8,4 C 0,0 km/h (0 Bft)
02.06.2016 07:25 10,6 C 10,7 C 86 % 1012,5 hPa 0,0 mm 0,0 km/h (0 Bft) S-SO 157 0 min 8,4 C 0,0 km/h (0 Bft)
02.06.2016 07:30 10,6 C 10,7 C 86 % 1012,4 hPa 0,0 mm 0,0 km/h (0 Bft) S-SW 202 0 min 8,4 C 0,0 km/h (0 Bft)
02.06.2016 07:35 10,7 C 10,8 C 86 % 1012,4 hPa 0,0 mm 0,0 km/h (0 Bft) SW 225 0 min 8,5 C 0,0 km/h (0 Bft)
02.06.2016 07:40 10,7 C 10,8 C 86 % 1012,4 hPa 0,0 mm 0,0 km/h (0 Bft) S-SO 157 0 min 8,5 C 0,0 km/h (0 Bft)
02.06.2016 07:45 10,7 C 10,8 C 86 % 1012,4 hPa 0,0 mm 0,0 km/h (0 Bft) S-SO 157 0 min 8,5 C 0,0 km/h (0 Bft)
02.06.2016 07:50 10,6 C 10,7 C 86 % 1012,7 hPa 0,0 mm 0,0 km/h (0 Bft) S-SO 157 0 min 8,4 C 0,0 km/h (0 Bft)
02.06.2016 07:55 10,6 C 10,7 C 86 % 1012,7 hPa 0,7 mm 0,0 km/h (0 Bft) S-SO 157 0 min 8,4 C 0,0 km/h (0 Bft)
02.06.2016 08:00 10,6 C 10,7 C 87 % 1012,7 hPa 0,0 mm 0,0 km/h (0 Bft) W-SW 247 0 min 8,5 C 0,0 km/h (0 Bft)
02.06.2016 08:05 10,6 C 10,7 C 87 % 1012,7 hPa 0,0 mm 0,0 km/h (0 Bft) S 180 0 min 8,5 C 0,0 km/h (0 Bft)
02.06.2016 08:10 10,7 C 10,8 C 87 % 1012,6 hPa 0,7 mm 0,0 km/h (0 Bft) S-SW 202 0 min 8,6 C 0,0 km/h (0 Bft)
02.06.2016 08:15 10,7 C 10,9 C 87 % 1012,6 hPa 0,0 mm 0,0 km/h (0 Bft) S 180 0 min 8,6 C 0,0 km/h (0 Bft)
02.06.2016 08:20 10,8 C 11,0 C 87 % 1012,6 hPa 0,0 mm 0,0 km/h (0 Bft) S-SO 157 0 min 8,7 C 0,0 km/h (0 Bft)
02.06.2016 08:25 10,9 C 11,2 C 87 % 1012,6 hPa 0,0 mm 0,0 km/h (0 Bft) S 180 0 min 8,8 C 0,0 km/h (0 Bft)
02.06.2016 08:30 11,1 C 11,5 C 87 % 1012,8 hPa 0,0 mm 0,0 km/h (0 Bft) NW 315 0 min 9,0 C 0,0 km/h (0 Bft)
02.06.2016 08:35 11,3 C 11,7 C 87 % 1012,8 hPa 0,0 mm 0,0 km/h (0 Bft) S 180 0 min 9,2 C 0,0 km/h (0 Bft)
02.06.2016 08:40 11,4 C 11,9 C 87 % 1012,8 hPa 0,0 mm 0,0 km/h (0 Bft) N-NW 337 0 min 9,3 C 0,0 km/h (0 Bft)
02.06.2016 08:45 11,5 C 12,0 C 87 % 1012,8 hPa 0,0 mm 0,0 km/h (0 Bft) W-SW 247 0 min 9,4 C 0,0 km/h (0 Bft)
02.06.2016 08:50 11,5 C 11,9 C 87 % 1012,8 hPa 0,0 mm 0,0 km/h (0 Bft) S 180 0 min 9,4 C 0,0 km/h (0 Bft)
02.06.2016 08:55 11,6 C 11,9 C 87 % 1012,8 hPa 0,0 mm 0,0 km/h (0 Bft) S-SO 157 0 min 9,5 C 0,0 km/h (0 Bft)
02.06.2016 09:00 11,7 C 11,9 C 87 % 1012,8 hPa 0,0 mm 0,0 km/h (0 Bft) W-SW 247 0 min 9,6 C 0,0 km/h (0 Bft)
02.06.2016 09:05 11,8 C 12,1 C 87 % 1012,8 hPa 0,0 mm 0,0 km/h (0 Bft) W-SW 247 0 min 9,7 C 0,0 km/h (0 Bft)
02.06.2016 09:10 11,9 C 12,3 C 87 % 1012,8 hPa 0,0 mm 0,0 km/h (0 Bft) O-SO 112 0 min 9,8 C 0,0 km/h (0 Bft)
02.06.2016 09:15 12,0 C 12,4 C 87 % 1012,8 hPa 0,0 mm 0,0 km/h (0 Bft) W-NW 292 0 min 9,9 C 0,0 km/h (0 Bft)
02.06.2016 09:20 12,1 C 12,5 C 87 % 1012,8 hPa 0,0 mm 0,0 km/h (0 Bft) N-NW 337 0 min 10,0 C 0,0 km/h (0 Bft)
02.06.2016 09:25 12,2 C 12,6 C 87 % 1012,8 hPa 0,7 mm 0,0 km/h (0 Bft) S 180 0 min 10,1 C 0,0 km/h (0 Bft)
02.06.2016 09:30 12,2 C 12,7 C 87 % 1012,8 hPa 0,0 mm 0,0 km/h (0 Bft) SW 225 0 min 10,1 C 0,0 km/h (0 Bft)
02.06.2016 09:35 12,3 C 12,8 C 86 % 1012,8 hPa 0,0 mm 0,0 km/h (0 Bft) W-SW 247 0 min 10,0 C 0,0 km/h (0 Bft)
02.06.2016 09:40 12,4 C 12,7 C 86 % 1012,8 hPa 0,0 mm 0,0 km/h (0 Bft) O-SO 112 0 min 10,1 C 0,0 km/h (0 Bft)
02.06.2016 09:45 12,4 C 12,8 C 86 % 1012,8 hPa 0,0 mm 0,0 km/h (0 Bft) SW 225 0 min 10,1 C 0,0 km/h (0 Bft)
02.06.2016 09:50 12,5 C 12,9 C 86 % 1012,9 hPa 0,0 mm 0,0 km/h (0 Bft) NW 315 0 min 10,2 C 0,0 km/h (0 Bft)
02.06.2016 09:55 12,6 C 12,8 C 86 % 1012,9 hPa 0,0 mm 0,0 km/h (0 Bft) N-NW 337 0 min 10,3 C 0,0 km/h (0 Bft)
02.06.2016 10:00 12,6 C 12,8 C 86 % 1012,9 hPa 0,0 mm 0,0 km/h (0 Bft) SW 225 0 min 10,3 C 0,0 km/h (0 Bft)
02.06.2016 10:05 12,7 C 12,9 C 86 % 1012,9 hPa 0,0 mm 0,0 km/h (0 Bft) O-NO 67 0 min 10,4 C 0,0 km/h (0 Bft)
02.06.2016 10:10 12,7 C 13,1 C 86 % 1013,1 hPa 0,7 mm 0,0 km/h (0 Bft) S-SO 157 0 min 10,4 C 0,0 km/h (0 Bft)
02.06.2016 10:13 12,7 C 13,1 C 86 % 1013,1 hPa 0,0 mm 0,0 km/h (0 Bft) S-SO 157 0 min 10,4 C 0,0 km/h (0 Bft)
02.06.2016 10:15 12,8 C 13,2 C 86 % 1013,1 hPa 0,0 mm 0,0 km/h (0 Bft) SO 135 0 min 10,5 C 0,0 km/h (0 Bft)
02.06.2016 10:20 12,8 C 13,2 C 86 % 1013,1 hPa 0,0 mm 0,0 km/h (0 Bft) S-SO 157 0 min 10,5 C 0,0 km/h (0 Bft)
02.06.2016 10:25 12,9 C 13,3 C 86 % 1013,1 hPa 0,0 mm 0,0 km/h (0 Bft) SO 135 0 min 10,6 C 0,0 km/h (0 Bft)
02.06.2016 10:30 13,0 C 13,3 C 85 % 1013,0 hPa 0,0 mm 0,0 km/h (0 Bft) SW 225 0 min 10,5 C 0,0 km/h (0 Bft)
02.06.2016 10:35 13,2 C 13,4 C 85 % 1013,0 hPa 0,0 mm 0,0 km/h (0 Bft) SW 225 0 min 10,7 C 0,0 km/h (0 Bft)
02.06.2016 10:40 13,4 C 13,6 C 85 % 1013,0 hPa 0,0 mm 0,0 km/h (0 Bft) SW 225 0 min 10,9 C 0,0 km/h (0 Bft)
02.06.2016 10:45 13,4 C 13,9 C 84 % 1013,0 hPa 0,0 mm 0,0 km/h (0 Bft) S-SO 157 0 min 10,8 C 0,0 km/h (0 Bft)
02.06.2016 10:50 13,5 C 14,1 C 84 % 1013,1 hPa 0,0 mm 0,0 km/h (0 Bft) W-SW 247 0 min 10,8 C 0,0 km/h (0 Bft)
02.06.2016 10:55 13,7 C 14,2 C 84 % 1013,1 hPa 0,0 mm 0,0 km/h (0 Bft) NW 315 0 min 11,0 C 0,0 km/h (0 Bft)
02.06.2016 11:00 13,7 C 14,1 C 84 % 1013,1 hPa 0,0 mm 0,0 km/h (0 Bft) W 270 0 min 11,0 C 0,0 km/h (0 Bft)
02.06.2016 11:05 13,9 C 14,2 C 84 % 1013,1 hPa 0,0 mm 0,0 km/h (0 Bft) N-NO 22 0 min 11,2 C 0,0 km/h (0 Bft)
02.06.2016 11:10 13,9 C 14,1 C 83 % 1013,0 hPa 0,0 mm 0,9 km/h (0 Bft) N-NW 337 0 min 11,1 C 5,4 km/h (1 Bft)
02.06.2016 11:15 13,9 C 14,3 C 83 % 1013,0 hPa 0,0 mm 2,4 km/h (1 Bft) W-NW 292 0 min 11,1 C 4,8 km/h (1 Bft)
02.06.2016 11:20 13,9 C 14,4 C 83 % 1013,0 hPa 0,0 mm 3,9 km/h (1 Bft) W-NW 292 0 min 11,1 C 5,1 km/h (1 Bft)
02.06.2016 11:25 14,1 C 14,7 C 82 % 1013,0 hPa 0,0 mm 4,2 km/h (1 Bft) W 270 0 min 11,1 C 11,6 km/h (2 Bft)
02.06.2016 11:30 14,0 C 14,5 C 82 % 1013,1 hPa 0,0 mm 6,3 km/h (2 Bft) N-NW 337 0 min 11,0 C 19,1 km/h (3 Bft)
02.06.2016 11:35 14,0 C 14,4 C 82 % 1013,1 hPa 0,0 mm 7,7 km/h (2 Bft) W-NW 292 0 min 11,0 C 8,0 km/h (2 Bft)
02.06.2016 11:40 14,0 C 14,6 C 82 % 1013,1 hPa 0,0 mm 6,0 km/h (2 Bft) W 270 0 min 11,0 C 9,2 km/h (2 Bft)
02.06.2016 11:45 14,0 C 14,7 C 81 % 1013,1 hPa 0,0 mm 5,4 km/h (1 Bft) W-SW 247 0 min 10,8 C 4,8 km/h (1 Bft)
02.06.2016 11:50 14,0 C 15,0 C 81 % 1013,1 hPa 0,0 mm 5,7 km/h (1 Bft) W-NW 292 0 min 10,8 C 10,7 km/h (2 Bft)
02.06.2016 11:55 14,0 C 15,0 C 81 % 1013,1 hPa 0,0 mm 6,0 km/h (2 Bft) W-NW 292 0 min 10,8 C 9,5 km/h (2 Bft)
02.06.2016 12:00 14,1 C 15,2 C 81 % 1013,1 hPa 0,0 mm 4,8 km/h (1 Bft) SW 225 0 min 10,9 C 5,4 km/h (1 Bft)
02.06.2016 12:05 14,2 C 15,3 C 81 % 1013,1 hPa 0,0 mm 3,6 km/h (1 Bft) S 180 0 min 11,0 C 0,0 km/h (0 Bft)
02.06.2016 12:10 14,6 C 16,6 C 80 % 1012,9 hPa 0,0 mm 3,0 km/h (1 Bft) W-NW 292 0 min 11,2 C 6,6 km/h (2 Bft)
02.06.2016 12:15 14,9 C 17,8 C 80 % 1012,9 hPa 0,0 mm 3,9 km/h (1 Bft) N-NW 337 0 min 11,5 C 0,0 km/h (0 Bft)
02.06.2016 12:20 15,1 C 18,8 C 79 % 1012,9 hPa 0,0 mm 3,9 km/h (1 Bft) W 270 5 min 11,5 C 14,3 km/h (3 Bft)
02.06.2016 12:25 14,9 C 18,3 C 79 % 1012,9 hPa 0,0 mm 5,4 km/h (1 Bft) W 270 5 min 11,3 C 14,6 km/h (3 Bft)
02.06.2016 12:30 14,6 C 17,5 C 79 % 1013,0 hPa 0,0 mm 8,6 km/h (2 Bft) O-SO 112 5 min 11,0 C 9,5 km/h (2 Bft)
02.06.2016 12:35 14,6 C 17,4 C 79 % 1013,0 hPa 0,0 mm 8,0 km/h (2 Bft) W 270 5 min 11,0 C 9,5 km/h (2 Bft)
02.06.2016 12:40 14,9 C 17,9 C 79 % 1013,0 hPa 0,0 mm 7,2 km/h (2 Bft) W 270 0 min 11,3 C 8,3 km/h (2 Bft)
02.06.2016 12:45 15,4 C 19,2 C 78 % 1013,0 hPa 0,0 mm 7,2 km/h (2 Bft) W 270 5 min 11,6 C 4,8 km/h (1 Bft)
02.06.2016 12:50 15,7 C 21,4 C 76 % 1012,8 hPa 0,0 mm 5,1 km/h (1 Bft) S-SW 202 5 min 11,5 C 5,4 km/h (1 Bft)
02.06.2016 12:55 16,4 C 22,7 C 75 % 1012,8 hPa 0,0 mm 4,2 km/h (1 Bft) N-NO 22 5 min 12,0 C 10,4 km/h (2 Bft)
02.06.2016 13:00 16,7 C 23,4 C 74 % 1012,8 hPa 0,0 mm 6,3 km/h (2 Bft) NW 315 5 min 12,0 C 10,7 km/h (2 Bft)
02.06.2016 13:05 16,7 C 23,0 C 73 % 1012,8 hPa 0,0 mm 8,3 km/h (2 Bft) NW 315 5 min 11,8 C 14,3 km/h (3 Bft)
02.06.2016 13:10 16,4 C 22,1 C 72 % 1013,0 hPa 0,0 mm 8,0 km/h (2 Bft) NW 315 5 min 11,3 C 24,7 km/h (4 Bft)
02.06.2016 13:13 16,4 C 21,8 C 72 % 1013,0 hPa 0,0 mm 5,7 km/h (1 Bft) S-SW 202 3 min 11,3 C 4,2 km/h (1 Bft)
02.06.2016 13:14 16,4 C 21,8 C 72 % 1013,0 hPa 0,0 mm 5,7 km/h (1 Bft) S-SW 202 1 min 11,3 C 4,2 km/h (1 Bft)
02.06.2016 13:15 16,4 C 21,8 C 72 % 1013,0 hPa 0,0 mm 5,7 km/h (1 Bft) S-SW 202 1 min 11,3 C 4,2 km/h (1 Bft)
02.06.2016 13:20 16,8 C 22,1 C 71 % 1013,0 hPa 0,0 mm 3,3 km/h (1 Bft) N-NW 337 5 min 11,5 C 0,0 km/h (0 Bft)
02.06.2016 13:25 17,0 C 22,2 C 70 % 1013,0 hPa 0,0 mm 4,8 km/h (1 Bft) N-NW 337 5 min 11,5 C 10,1 km/h (2 Bft)
02.06.2016 13:30 17,4 C 23,3 C 70 % 1013,1 hPa 0,0 mm 6,3 km/h (2 Bft) NW 315 5 min 11,9 C 9,8 km/h (2 Bft)
02.06.2016 13:35 17,3 C 23,2 C 70 % 1013,1 hPa 0,0 mm 7,2 km/h (2 Bft) N-NO 22 5 min 11,8 C 16,7 km/h (3 Bft)
02.06.2016 13:40 17,0 C 21,7 C 69 % 1013,1 hPa 0,0 mm 9,2 km/h (2 Bft) NW 315 5 min 11,3 C 14,9 km/h (3 Bft)
02.06.2016 13:45 16,8 C 20,8 C 69 % 1013,1 hPa 0,0 mm 9,5 km/h (2 Bft) W 270 5 min 11,1 C 6,9 km/h (2 Bft)
02.06.2016 13:50 17,2 C 21,4 C 68 % 1012,9 hPa 0,0 mm 8,9 km/h (2 Bft) W-NW 292 5 min 11,2 C 14,9 km/h (3 Bft)
02.06.2016 13:55 17,0 C 21,1 C 67 % 1012,9 hPa 0,0 mm 8,9 km/h (2 Bft) NW 315 5 min 10,8 C 11,3 km/h (2 Bft)
02.06.2016 14:00 17,5 C 21,1 C 68 % 1012,9 hPa 0,0 mm 8,9 km/h (2 Bft) N-NW 337 5 min 11,5 C 15,2 km/h (3 Bft)
02.06.2016 14:05 18,1 C 23,0 C 66 % 1012,9 hPa 0,0 mm 7,7 km/h (2 Bft) S-SW 202 5 min 11,6 C 0,0 km/h (0 Bft)
02.06.2016 14:10 18,0 C 23,8 C 63 % 1012,8 hPa 0,0 mm 6,9 km/h (2 Bft) NW 315 5 min 10,8 C 5,4 km/h (1 Bft)
02.06.2016 14:15 17,8 C 22,8 C 64 % 1012,8 hPa 0,0 mm 5,1 km/h (1 Bft) W-NW 292 5 min 10,9 C 16,1 km/h (3 Bft)
02.06.2016 14:20 17,3 C 21,5 C 64 % 1012,8 hPa 0,0 mm 5,4 km/h (1 Bft) O-SO 112 5 min 10,4 C 5,7 km/h (1 Bft)
02.06.2016 14:25 17,3 C 21,2 C 65 % 1012,8 hPa 0,0 mm 6,6 km/h (2 Bft) N-NO 22 5 min 10,7 C 3,9 km/h (1 Bft)
02.06.2016 14:30 17,2 C 21,1 C 63 % 1012,8 hPa 0,0 mm 7,2 km/h (2 Bft) NO 45 5 min 10,1 C 10,7 km/h (2 Bft)
02.06.2016 14:35 17,7 C 22,0 C 65 % 1012,8 hPa 0,0 mm 7,5 km/h (2 Bft) NW 315 0 min 11,0 C 13,7 km/h (3 Bft)
02.06.2016 14:40 17,4 C 22,4 C 63 % 1012,8 hPa 0,0 mm 8,0 km/h (2 Bft) N-NO 22 5 min 10,3 C 9,5 km/h (2 Bft)
02.06.2016 14:45 17,0 C 21,1 C 63 % 1012,8 hPa 0,0 mm 7,5 km/h (2 Bft) NO 45 5 min 9,9 C 3,3 km/h (1 Bft)
02.06.2016 14:50 16,5 C 19,2 C 67 % 1012,7 hPa 0,0 mm 7,7 km/h (2 Bft) NO 45 5 min 10,4 C 14,3 km/h (3 Bft)
02.06.2016 14:55 16,1 C 18,2 C 70 % 1012,7 hPa 0,0 mm 8,0 km/h (2 Bft) O-SO 112 5 min 10,6 C 4,2 km/h (1 Bft)
02.06.2016 15:00 15,9 C 17,4 C 73 % 1012,7 hPa 0,0 mm 7,7 km/h (2 Bft) NO 45 0 min 11,1 C 3,9 km/h (1 Bft)
02.06.2016 15:05 15,7 C 17,1 C 74 % 1012,7 hPa 0,0 mm 7,7 km/h (2 Bft) O-NO 67 0 min 11,1 C 9,2 km/h (2 Bft)
02.06.2016 15:10 15,3 C 16,5 C 75 % 1012,9 hPa 0,0 mm 8,0 km/h (2 Bft) O-SO 112 0 min 10,9 C 6,3 km/h (2 Bft)
02.06.2016 15:15 15,2 C 16,3 C 75 % 1012,9 hPa 0,0 mm 7,2 km/h (2 Bft) SO 135 0 min 10,8 C 5,4 km/h (1 Bft)
02.06.2016 15:20 15,2 C 16,4 C 76 % 1012,9 hPa 0,0 mm 3,3 km/h (1 Bft) O-NO 67 0 min 11,0 C 0,0 km/h (0 Bft)
02.06.2016 15:25 15,4 C 16,5 C 76 % 1012,9 hPa 0,0 mm 1,8 km/h (1 Bft) O 90 0 min 11,2 C 6,0 km/h (2 Bft)
02.06.2016 15:30 15,4 C 16,8 C 76 % 1012,6 hPa 0,0 mm 3,9 km/h (1 Bft) NO 45 0 min 11,2 C 5,1 km/h (1 Bft)
02.06.2016 15:35 15,4 C 17,2 C 76 % 1012,6 hPa 0,0 mm 5,7 km/h (1 Bft) NO 45 0 min 11,2 C 13,4 km/h (3 Bft)
02.06.2016 15:40 15,4 C 17,3 C 76 % 1012,6 hPa 0,0 mm 8,0 km/h (2 Bft) NO 45 0 min 11,2 C 14,0 km/h (3 Bft)
02.06.2016 15:45 15,5 C 17,6 C 76 % 1012,6 hPa 0,0 mm 8,6 km/h (2 Bft) NO 45 0 min 11,3 C 5,4 km/h (1 Bft)
02.06.2016 15:50 15,6 C 18,1 C 76 % 1012,4 hPa 0,0 mm 7,5 km/h (2 Bft) N-NO 22 5 min 11,4 C 6,3 km/h (2 Bft)
02.06.2016 15:55 15,7 C 18,2 C 76 % 1012,4 hPa 0,0 mm 6,6 km/h (2 Bft) O-NO 67 0 min 11,5 C 13,1 km/h (3 Bft)
02.06.2016 16:00 15,6 C 18,0 C 76 % 1012,4 hPa 0,0 mm 7,2 km/h (2 Bft) NO 45 5 min 11,4 C 11,3 km/h (2 Bft)
02.06.2016 16:05 15,6 C 18,0 C 76 % 1012,4 hPa 0,0 mm 9,2 km/h (2 Bft) NO 45 0 min 11,4 C 15,5 km/h (3 Bft)
02.06.2016 16:10 15,7 C 18,3 C 74 % 1012,2 hPa 0,0 mm 9,2 km/h (2 Bft) NO 45 5 min 11,1 C 16,7 km/h (3 Bft)
02.06.2016 16:13 15,7 C 18,5 C 74 % 1012,2 hPa 0,0 mm 8,6 km/h (2 Bft) NO 45 3 min 11,1 C 0,0 km/h (0 Bft)
02.06.2016 16:15 15,7 C 18,5 C 74 % 1012,2 hPa 0,0 mm 8,6 km/h (2 Bft) NO 45 2 min 11,1 C 0,0 km/h (0 Bft)
02.06.2016 16:20 16,2 C 19,2 C 74 % 1012,2 hPa 0,0 mm 6,0 km/h (2 Bft) O-NO 67 5 min 11,6 C 10,4 km/h (2 Bft)
02.06.2016 16:25 16,1 C 19,2 C 73 % 1012,2 hPa 0,0 mm 5,7 km/h (1 Bft) N-NO 22 5 min 11,3 C 7,2 km/h (2 Bft)
02.06.2016 16:30 16,1 C 19,0 C 72 % 1012,2 hPa 0,0 mm 6,3 km/h (2 Bft) NO 45 5 min 11,0 C 13,4 km/h (3 Bft)
02.06.2016 16:35 16,1 C 18,9 C 72 % 1012,2 hPa 0,0 mm 4,5 km/h (1 Bft) O-NO 67 5 min 11,0 C 0,0 km/h (0 Bft)
02.06.2016 16:40 16,2 C 18,8 C 71 % 1012,2 hPa 0,0 mm 4,8 km/h (1 Bft) NO 45 5 min 10,9 C 10,7 km/h (2 Bft)
02.06.2016 16:45 16,2 C 18,7 C 70 % 1012,2 hPa 0,0 mm 5,1 km/h (1 Bft) NO 45 5 min 10,7 C 8,6 km/h (2 Bft)
02.06.2016 16:50 16,1 C 18,5 C 71 % 1012,1 hPa 0,0 mm 2,7 km/h (1 Bft) NO 45 0 min 10,8 C 0,0 km/h (0 Bft)
02.06.2016 16:55 16,0 C 18,3 C 71 % 1012,1 hPa 0,0 mm 0,6 km/h (0 Bft) W-NW 292 0 min 10,7 C 0,0 km/h (0 Bft)
02.06.2016 17:00 16,1 C 18,0 C 71 % 1012,1 hPa 0,0 mm 0,0 km/h (0 Bft) NO 45 0 min 10,8 C 0,0 km/h (0 Bft)
02.06.2016 17:05 15,9 C 17,7 C 72 % 1012,1 hPa 0,0 mm 0,0 km/h (0 Bft) N-NW 337 0 min 10,9 C 0,0 km/h (0 Bft)
02.06.2016 17:10 15,7 C 17,2 C 72 % 1012,2 hPa 0,0 mm 0,0 km/h (0 Bft) W-NW 292 0 min 10,7 C 0,0 km/h (0 Bft)
02.06.2016 17:15 15,5 C 16,5 C 72 % 1012,2 hPa 0,0 mm 0,0 km/h (0 Bft) W-SW 247 0 min 10,5 C 0,0 km/h (0 Bft)
02.06.2016 17:20 15,2 C 15,0 C 73 % 1012,2 hPa 0,0 mm 0,0 km/h (0 Bft) N-NW 337 0 min 10,4 C 0,0 km/h (0 Bft)
02.06.2016 17:25 15,1 C 14,6 C 74 % 1012,2 hPa 0,7 mm 0,0 km/h (0 Bft) W 270 0 min 10,5 C 0,0 km/h (0 Bft)
02.06.2016 17:30 14,5 C 14,0 C 75 % 1012,6 hPa 1,4 mm 0,6 km/h (0 Bft) W-SW 247 0 min 10,1 C 6,3 km/h (2 Bft)
02.06.2016 17:35 14,1 C 13,6 C 75 % 1012,6 hPa 2,1 mm 0,6 km/h (0 Bft) NW 315 0 min 9,7 C 0,0 km/h (0 Bft)
02.06.2016 17:40 13,7 C 13,4 C 76 % 1012,6 hPa 0,7 mm 0,6 km/h (0 Bft) O-SO 112 0 min 9,5 C 0,0 km/h (0 Bft)
02.06.2016 17:45 13,6 C 13,2 C 77 % 1012,6 hPa 0,7 mm 0,0 km/h (0 Bft) N 360 0 min 9,6 C 0,0 km/h (0 Bft)
02.06.2016 17:50 13,3 C 13,1 C 78 % 1012,4 hPa 0,7 mm 0,0 km/h (0 Bft) SO 135 0 min 9,5 C 0,0 km/h (0 Bft)
02.06.2016 17:55 13,1 C 13,0 C 79 % 1012,4 hPa 0,0 mm 0,0 km/h (0 Bft) SO 135 0 min 9,5 C 0,0 km/h (0 Bft)
02.06.2016 18:00 13,2 C 13,1 C 80 % 1012,4 hPa 0,0 mm 0,3 km/h (0 Bft) O-NO 67 0 min 9,8 C 0,0 km/h (0 Bft)
02.06.2016 18:05 13,3 C 13,2 C 80 % 1012,4 hPa 0,0 mm 0,3 km/h (0 Bft) O-SO 112 0 min 9,9 C 0,0 km/h (0 Bft)
02.06.2016 18:10 13,3 C 13,3 C 80 % 1012,3 hPa 0,0 mm 0,0 km/h (0 Bft) W 270 0 min 9,9 C 0,0 km/h (0 Bft)
02.06.2016 18:15 13,5 C 13,6 C 80 % 1012,3 hPa 0,7 mm 0,0 km/h (0 Bft) SW 225 0 min 10,1 C 0,0 km/h (0 Bft)
02.06.2016 18:20 13,5 C 13,5 C 81 % 1012,3 hPa 0,0 mm 0,0 km/h (0 Bft) O-SO 112 0 min 10,3 C 0,0 km/h (0 Bft)
02.06.2016 18:25 13,5 C 13,6 C 80 % 1012,3 hPa 0,0 mm 0,0 km/h (0 Bft) O-NO 67 0 min 10,1 C 0,0 km/h (0 Bft)
02.06.2016 18:30 13,6 C 13,7 C 80 % 1012,2 hPa 0,0 mm 0,0 km/h (0 Bft) N-NO 22 0 min 10,2 C 0,0 km/h (0 Bft)
02.06.2016 18:35 13,7 C 13,7 C 80 % 1012,2 hPa 0,0 mm 0,0 km/h (0 Bft) NW 315 0 min 10,3 C 0,0 km/h (0 Bft)
02.06.2016 18:40 13,6 C 13,7 C 81 % 1012,2 hPa 0,0 mm 0,0 km/h (0 Bft) S 180 0 min 10,4 C 0,0 km/h (0 Bft)
02.06.2016 18:45 13,5 C 13,6 C 81 % 1012,2 hPa 0,0 mm 0,0 km/h (0 Bft) SW 225 0 min 10,3 C 0,0 km/h (0 Bft)
02.06.2016 18:50 13,4 C 13,6 C 81 % 1012,4 hPa 0,0 mm 0,0 km/h (0 Bft) S-SO 157 0 min 10,2 C 0,0 km/h (0 Bft)
02.06.2016 18:55 13,3 C 13,5 C 81 % 1012,4 hPa 0,0 mm 0,0 km/h (0 Bft) S 180 0 min 10,1 C 0,0 km/h (0 Bft)
02.06.2016 19:00 13,2 C 13,3 C 82 % 1012,4 hPa 0,0 mm 0,0 km/h (0 Bft) SO 135 0 min 10,2 C 0,0 km/h (0 Bft)
02.06.2016 19:05 13,1 C 13,3 C 82 % 1012,4 hPa 0,0 mm 0,0 km/h (0 Bft) O-SO 112 0 min 10,1 C 0,0 km/h (0 Bft)
02.06.2016 19:10 13,1 C 13,3 C 82 % 1012,2 hPa 0,0 mm 0,0 km/h (0 Bft) SO 135 0 min 10,1 C 0,0 km/h (0 Bft)
02.06.2016 19:13 13,1 C 13,3 C 82 % 1012,2 hPa 0,0 mm 0,0 km/h (0 Bft) O-NO 67 0 min 10,1 C 0,0 km/h (0 Bft)
02.06.2016 19:16 13,1 C 13,3 C 82 % 1012,2 hPa 0,0 mm 0,0 km/h (0 Bft) O-NO 67 0 min 10,1 C 0,0 km/h (0 Bft)
02.06.2016 19:20 13,2 C 13,3 C 83 % 1012,2 hPa 0,0 mm 0,0 km/h (0 Bft) N-NW 337 0 min 10,4 C 0,0 km/h (0 Bft)
02.06.2016 19:25 13,2 C 13,3 C 83 % 1012,2 hPa 0,0 mm 0,0 km/h (0 Bft) SW 225 0 min 10,4 C 0,0 km/h (0 Bft)
02.06.2016 19:30 13,1 C 13,3 C 83 % 1012,3 hPa 0,0 mm 0,0 km/h (0 Bft) NW 315 0 min 10,3 C 0,0 km/h (0 Bft)
02.06.2016 19:35 13,2 C 13,3 C 83 % 1012,3 hPa 0,0 mm 0,0 km/h (0 Bft) NW 315 0 min 10,4 C 0,0 km/h (0 Bft)
02.06.2016 19:40 13,2 C 13,2 C 83 % 1012,3 hPa 0,0 mm 0,0 km/h (0 Bft) W 270 0 min 10,4 C 0,0 km/h (0 Bft)
02.06.2016 19:45 13,2 C 13,2 C 83 % 1012,3 hPa 0,0 mm 0,0 km/h (0 Bft) S-SO 157 0 min 10,4 C 0,0 km/h (0 Bft)
02.06.2016 19:50 13,1 C 13,1 C 84 % 1012,4 hPa 0,0 mm 0,0 km/h (0 Bft) SO 135 0 min 10,5 C 0,0 km/h (0 Bft)
02.06.2016 19:55 13,0 C 13,1 C 84 % 1012,4 hPa 0,0 mm 0,0 km/h (0 Bft) SO 135 0 min 10,4 C 0,0 km/h (0 Bft)
02.06.2016 20:00 13,0 C 13,0 C 84 % 1012,4 hPa 0,0 mm 0,0 km/h (0 Bft) SO 135 0 min 10,4 C 0,0 km/h (0 Bft)
02.06.2016 20:05 13,0 C 13,0 C 84 % 1012,4 hPa 0,0 mm 0,0 km/h (0 Bft) W 270 0 min 10,4 C 0,0 km/h (0 Bft)
02.06.2016 20:10 13,1 C 13,0 C 84 % 1012,5 hPa 0,0 mm 0,0 km/h (0 Bft) N-NW 337 0 min 10,5 C 0,0 km/h (0 Bft)
02.06.2016 20:15 13,1 C 13,0 C 84 % 1012,5 hPa 0,0 mm 0,0 km/h (0 Bft) W 270 0 min 10,5 C 0,0 km/h (0 Bft)
02.06.2016 20:20 13,0 C 13,0 C 84 % 1012,5 hPa 0,0 mm 0,0 km/h (0 Bft) SO 135 0 min 10,4 C 0,0 km/h (0 Bft)
02.06.2016 20:25 12,9 C 12,9 C 85 % 1012,5 hPa 0,0 mm 0,0 km/h (0 Bft) O-NO 67 0 min 10,4 C 0,0 km/h (0 Bft)
02.06.2016 20:30 12,9 C 12,9 C 85 % 1012,6 hPa 0,0 mm 0,0 km/h (0 Bft) N-NO 22 0 min 10,4 C 0,0 km/h (0 Bft)
02.06.2016 20:35 12,9 C 12,9 C 85 % 1012,6 hPa 0,0 mm 0,0 km/h (0 Bft) W 270 0 min 10,4 C 0,0 km/h (0 Bft)
02.06.2016 20:40 12,9 C 12,8 C 85 % 1012,6 hPa 0,0 mm 0,0 km/h (0 Bft) W-SW 247 0 min 10,4 C 0,0 km/h (0 Bft)
02.06.2016 20:45 12,8 C 12,7 C 85 % 1012,6 hPa 0,0 mm 0,0 km/h (0 Bft) S-SO 157 0 min 10,3 C 0,0 km/h (0 Bft)
02.06.2016 20:50 12,7 C 12,6 C 85 % 1012,4 hPa 0,0 mm 0,0 km/h (0 Bft) W-SW 247 0 min 10,2 C 0,0 km/h (0 Bft)
02.06.2016 20:55 12,7 C 12,6 C 85 % 1012,4 hPa 0,0 mm 0,0 km/h (0 Bft) W 270 0 min 10,2 C 0,0 km/h (0 Bft)
02.06.2016 21:00 12,6 C 12,4 C 86 % 1012,4 hPa 0,0 mm 0,0 km/h (0 Bft) SW 225 0 min 10,3 C 0,0 km/h (0 Bft)
02.06.2016 21:05 12,5 C 12,4 C 86 % 1012,4 hPa 0,0 mm 0,0 km/h (0 Bft) SW 225 0 min 10,2 C 0,0 km/h (0 Bft)
02.06.2016 21:10 12,5 C 12,4 C 86 % 1012,5 hPa 0,0 mm 0,0 km/h (0 Bft) S-SO 157 0 min 10,2 C 0,0 km/h (0 Bft)
02.06.2016 21:15 12,4 C 12,4 C 86 % 1012,5 hPa 0,0 mm 0,0 km/h (0 Bft) S 180 0 min 10,1 C 0,0 km/h (0 Bft)
02.06.2016 21:20 12,4 C 12,4 C 86 % 1012,5 hPa 0,0 mm 0,0 km/h (0 Bft) S 180 0 min 10,1 C 0,0 km/h (0 Bft)
02.06.2016 21:25 12,4 C 12,3 C 86 % 1012,5 hPa 0,0 mm 0,0 km/h (0 Bft) S 180 0 min 10,1 C 0,0 km/h (0 Bft)
02.06.2016 21:30 12,3 C 12,3 C 86 % 1012,7 hPa 0,0 mm 0,0 km/h (0 Bft) S 180 0 min 10,0 C 0,0 km/h (0 Bft)
02.06.2016 21:35 12,3 C 12,2 C 86 % 1012,7 hPa 0,0 mm 0,0 km/h (0 Bft) SO 135 0 min 10,0 C 0,0 km/h (0 Bft)
02.06.2016 21:40 12,3 C 12,2 C 86 % 1012,7 hPa 0,0 mm 0,0 km/h (0 Bft) S-SO 157 0 min 10,0 C 0,0 km/h (0 Bft)
02.06.2016 21:45 12,2 C 12,1 C 86 % 1012,7 hPa 0,0 mm 0,0 km/h (0 Bft) SW 225 0 min 9,9 C 0,0 km/h (0 Bft)
02.06.2016 21:50 12,2 C 12,1 C 86 % 1012,8 hPa 0,0 mm 0,0 km/h (0 Bft) SW 225 0 min 9,9 C 0,0 km/h (0 Bft)
02.06.2016 21:55 12,1 C 12,1 C 86 % 1012,8 hPa 0,0 mm 0,0 km/h (0 Bft) S-SW 202 0 min 9,8 C 0,0 km/h (0 Bft)
02.06.2016 22:00 12,1 C 12,0 C 86 % 1012,8 hPa 0,0 mm 0,0 km/h (0 Bft) S-SW 202 0 min 9,8 C 0,0 km/h (0 Bft)
02.06.2016 22:05 12,1 C 12,0 C 86 % 1012,8 hPa 0,0 mm 0,3 km/h (0 Bft) S-SW 202 0 min 9,8 C 0,0 km/h (0 Bft)
02.06.2016 22:10 12,1 C 11,9 C 86 % 1012,8 hPa 0,0 mm 0,3 km/h (0 Bft) S-SW 202 0 min 9,8 C 0,0 km/h (0 Bft)
02.06.2016 22:15 12,0 C 11,9 C 86 % 1012,8 hPa 0,0 mm 0,0 km/h (0 Bft) SW 225 0 min 9,7 C 0,0 km/h (0 Bft)
02.06.2016 22:17 12,0 C 11,9 C 86 % 1012,8 hPa 0,0 mm 0,0 km/h (0 Bft) SW 225 0 min 9,7 C 0,0 km/h (0 Bft)
02.06.2016 22:20 12,0 C 11,8 C 86 % 1012,8 hPa 0,0 mm 0,0 km/h (0 Bft) W-SW 247 0 min 9,7 C 0,0 km/h (0 Bft)
02.06.2016 22:25 12,0 C 11,8 C 86 % 1012,8 hPa 0,0 mm 0,0 km/h (0 Bft) W-SW 247 0 min 9,7 C 0,0 km/h (0 Bft)
02.06.2016 22:30 11,9 C 11,7 C 86 % 1012,9 hPa 0,0 mm 0,0 km/h (0 Bft) SW 225 0 min 9,6 C 0,0 km/h (0 Bft)
02.06.2016 22:35 11,9 C 11,7 C 86 % 1012,9 hPa 0,0 mm 0,0 km/h (0 Bft) S-SW 202 0 min 9,6 C 0,0 km/h (0 Bft)
02.06.2016 22:40 11,8 C 11,7 C 86 % 1012,9 hPa 0,7 mm 0,0 km/h (0 Bft) S-SW 202 0 min 9,5 C 0,0 km/h (0 Bft)
02.06.2016 22:45 11,8 C 11,7 C 86 % 1012,9 hPa 0,0 mm 0,0 km/h (0 Bft) W 270 0 min 9,5 C 0,0 km/h (0 Bft)
02.06.2016 22:50 11,8 C 11,6 C 86 % 1012,9 hPa 0,0 mm 0,0 km/h (0 Bft) W-SW 247 0 min 9,5 C 0,0 km/h (0 Bft)
02.06.2016 22:55 11,7 C 11,6 C 86 % 1012,9 hPa 0,0 mm 0,0 km/h (0 Bft) SW 225 0 min 9,4 C 0,0 km/h (0 Bft)
02.06.2016 23:00 11,6 C 11,5 C 87 % 1012,9 hPa 0,0 mm 0,0 km/h (0 Bft) SW 225 0 min 9,5 C 0,0 km/h (0 Bft)
02.06.2016 23:05 11,6 C 11,4 C 87 % 1012,9 hPa 0,0 mm 1,8 km/h (1 Bft) SW 225 0 min 9,5 C 6,9 km/h (2 Bft)
02.06.2016 23:10 11,6 C 11,4 C 87 % 1012,8 hPa 0,0 mm 2,7 km/h (1 Bft) S-SO 157 0 min 9,5 C 0,0 km/h (0 Bft)
02.06.2016 23:15 11,5 C 11,3 C 87 % 1012,8 hPa 0,0 mm 1,5 km/h (1 Bft) S 180 0 min 9,4 C 0,0 km/h (0 Bft)
02.06.2016 23:20 11,4 C 11,3 C 87 % 1012,8 hPa 0,0 mm 0,3 km/h (0 Bft) SW 225 0 min 9,3 C 0,0 km/h (0 Bft)
02.06.2016 23:25 11,4 C 11,2 C 87 % 1012,8 hPa 0,0 mm 0,3 km/h (0 Bft) S-SO 157 0 min 9,3 C 0,0 km/h (0 Bft)
02.06.2016 23:30 11,3 C 11,2 C 87 % 1012,9 hPa 0,0 mm 0,0 km/h (0 Bft) SW 225 0 min 9,2 C 0,0 km/h (0 Bft)
02.06.2016 23:35 11,3 C 11,1 C 87 % 1012,9 hPa 0,0 mm 0,0 km/h (0 Bft) SW 225 0 min 9,2 C 0,0 km/h (0 Bft)
02.06.2016 23:40 11,2 C 11,0 C 87 % 1012,9 hPa 0,0 mm 0,0 km/h (0 Bft) SW 225 0 min 9,1 C 0,0 km/h (0 Bft)
02.06.2016 23:45 11,2 C 11,0 C 87 % 1012,9 hPa 0,0 mm 0,0 km/h (0 Bft) S-SW 202 0 min 9,1 C 0,0 km/h (0 Bft)
02.06.2016 23:50 11,2 C 11,0 C 87 % 1012,8 hPa 0,0 mm 0,0 km/h (0 Bft) SO 135 0 min 9,1 C 0,0 km/h (0 Bft)
02.06.2016 23:55 11,1 C 11,0 C 87 % 1012,8 hPa 0,0 mm 0,0 km/h (0 Bft) W 270 0 min 9,0 C 0,0 km/h (0 Bft)
_ Min-Zeit 02:20 02:15 14:45 17:05 - 23:55 - - - 02:20 23:55
Minimum _ 8,9 C 8,6 C 63 % 1012,1 hPa - 0,0 km/h (0 Bft) - - - 6,5 C 0,0 km/h (0 Bft)
_ Max-Zeit 14:05 14:10 23:55 00:05 17:35 13:45 - - 16:45 13:00 13:10
Maximum _ 18,1 C 23,8 C 87 % 1013,8 hPa 2,1 mm 9,5 km/h
W (2 Bft)
- - 5 min 12,0 C 24,7 km/h
NW (4 Bft)
Durchschnitt _ 12,5 C 13,2 C 82 % 1012,7 hPa #11,7 mm 1,6 km/h (1 Bft) NO - #3:20 h 9,5 C 2,4 km/h (1 Bft)